www.pogodaiklimat.ru
Время
и дата
16:20 30.12
16:51 30.12
17:51 30.12
18:51 30.12
19:27 30.12
19:42 30.12
19:51 30.12
19:58 30.12
20:18 30.12
20:42 30.12
20:51 30.12
21:19 30.12
21:51 30.12
22:47 30.12
22:51 30.12
23:51 30.12
00:35 31.12
00:47 31.12
00:51 31.12
01:14 31.12
01:43 31.12
01:47 31.12
01:51 31.12
02:01 31.12
02:28 31.12
02:33 31.12
02:46 31.12
02:51 31.12
03:01 31.12
03:08 31.12
03:17 31.12
03:51 31.12
04:51 31.12
05:51 31.12
06:51 31.12
07:51 31.12
08:51 31.12
09:51 31.12
10:51 31.12
11:46 31.12
11:51 31.12
12:51 31.12
13:51 31.12
14:51 31.12
15:51 31.12
16:51 31.12
17:51 31.12
18:04 31.01
Ветер
(напр.,м/с)
Видим. Явления Облачность Т
(С)
Тd
(С)
f
(%)
Тe
(С)
Тes
(С)
Комфортность P
(гПа)
Po
(гПа)
Тmin
(С)
Tmax
(С)
R
(мм)
R24
(мм)
S
(см)
З 1 6 км мгла 10/10 270 м +6.1 +2.8 79 +4 +4 982.2
штиль 0 6 км дымка 10/10 270 м +5.6 +3.3 85 +5 +5 1012.9 982.2
С 1 8 км дымка 10/10 270 м +5.6 +3.3 85 +3 +3 1013.1 982.2
СВ 1 5 км дымка 10/10 210 м +5.0 +2.8 86 +2 +2 1013.0 982.2 +5.0 +6.1
СВ 1 4 км дымка 10/10 240 м +5.0 +2.8 86 +2 +2 982.5
штиль 0 3 км дымка 10/10 150 м +5.0 +2.8 86 +4 +4 982.5
штиль 0 3 км дымка 10/10 150 м +5.0 +3.3 89 +4 +4 1013.1 982.2
штиль 0 3 км дымка 10/10 120 м +5.0 +3.3 89 +4 +4 982.5
штиль 0 3 км дымка 10/10 450 м +5.0 +3.3 89 +4 +4 982.2
штиль 0 3 км дымка 10/10 180 м +5.0 +3.3 89 +4 +4 982.2
штиль 0 3 км дымка 10/10 180 м +5.0 +3.3 89 +4 +4 1013.1 982.5
С 1 2 км дымка 10/10 150 м +5.0 +3.3 89 +2 +2 982.2
СВ 1 2 км дымка 10/10 180 м +5.0 +3.3 89 +2 +2 1012.9 982.2
штиль 0 2 км дымка 10/10 90 м +5.0 +3.0 87 +4 +4 982.2
штиль 0 2 км дымка 10/10 90 м +5.0 +3.3 89 +4 +4 1012.8 982.2
штиль 0 2 км слабая морось, дымка 10/10 90 м +5.6 +3.9 89 +5 +5 1012.2 981.5
ЮВ 1 2 км слабая морось, дымка 10/10 90 м +5.0 +3.3 89 +2 +2 981.2
ЮВ 1 3 км слабая морось, дымка 10/10 90 м +6.0 +4.0 87 +4 +4 981.2
ЮВ 1 3 км слабая морось, дымка 10/10 90 м +5.6 +3.9 89 +3 +3 1011.8 981.2 +5.0 +5.6
штиль 0 3 км дымка 10/10 420 м +5.6 +3.9 89 +5 +5 980.8
штиль 0 3 км дымка 10/10 330 м +5.6 +3.9 89 +5 +5 980.8
Ю 1 3 км дымка 10/10 330 м +6.0 +4.0 87 +4 +4 980.8
ЮЗ 1 3 км дымка 10/10 330 м +5.6 +3.9 89 +3 +3 1011.6 980.8
штиль 0 3 км дымка 10/10 330 м +5.6 +3.9 89 +5 +5 981.2
ЮЗ 1 3 км дымка 10/10 360 м +5.6 +4.4 92 +3 +3 981.5
ЮЗ 1 4 км дымка 10/10 360 м +5.6 +4.4 92 +3 +3 981.5
ЮЗ 1 6 км дымка 10/10 720 м +7.0 +5.0 87 +4 +4 981.5
Ю 1 8 км дымка 10/10 660 м +6.7 +5.0 89 +4 +4 1012.0 981.5
ЮЗ 1 8 км дымка 10/10 660 м +6.7 +5.0 89 +4 +4 981.5
ЮЗ 1 8 км дымка 10/10 570 м +6.7 +5.0 89 +4 +4 981.5
ЮЗ 1 8 км дымка 10/10 600 м +6.7 +5.0 89 +4 +4 981.5
Ю 1 8 км дымка 10/10 630 м +6.7 +5.0 89 +4 +4 1011.6 981.2
Ю 1 10 км дымка 8/8 1350 м +6.7 +5.0 89 +4 +4 1011.7 981.2
Ю 2 11 км 8/8 1320 м +6.7 +4.4 85 +3 +3 1011.6 980.8
Ю 2 13 км 5/5 1260 м
[Ac]
+6.1 +3.9 86 +2 +2 1012.1 981.5 +5.6 +7.2
ЮЗ 1 11 км 8/0 5700 м
[Ac]
+5.6 +3.3 85 +2 +2 1012.4 981.8
Ю 1 10 км дымка 5/0 5700 м
[Ac Ci]
+5.6 +3.9 89 +2 +2 1012.6 981.8
ЮЗ 1 14 км 5/0 6900 м
[Ci]
+7.2 +4.4 82 +5 +6 1013.4 982.8
ЮЗ 1 16 км 5/5 480 м
[Ci]
+7.8 +3.9 76 +5 +6 1013.0 982.5
ЮЗ 1 16 км 8/8 600 м
[Ci]
+8.0 +3.0 71 +5 +6 982.2
ЮЗ 1 16 км 8/8 600 м
[Ci]
+8.3 +3.9 74 +6 +6 1012.6 982.2
ЮЗ 1 16 км 10/10 690 м +8.3 +3.9 74 +6 +6 1011.5 980.8 +5.6 +8.9
ЮЗ 1 16 км 10/10 750 м +9.4 +3.9 68 +7 +7 1010.4 979.9
Ю 2 16 км 10/10 690 м +10.0 +5.0 71 +7 +7 1009.7 979.2
ЮЗ 1 16 км 10/10 630 м +10.0 +5.0 71 +9 +9 1009.9 979.5
Ю 1 16 км 10/10 600 м +10.0 +5.6 74 +8 +8 1009.7 979.2
Ю 1 16 км 8/8 540 м +8.9 +5.6 80 +6 +6 1009.4 978.9
Ю 1 16 км 5/5 540 м +8.3 +5.0 80 +6 +6 978.5
Местоположение метеостанции Cleveland-Hopkins International Airport: широта 41.4050 долгота -81.8528 высота над уровнем моря 241 м.
В архиве по умолчанию представлена погода в Кливленде за последние 1-2 суток. Обновление информации о фактической погоде в базе происходит ежечасно! Архивные данные за месяц целиком и за предыдущие месяцы Вы можете получить, выбрав интересующий диапазон дат из раскрывающегося списка и нажав кнопку "Ввод!".
Внимание! Архив погоды МЕТАР в базе сайта по станциям, не включенным в климатический монитор, хранится не более 60 дней. Нет смысла пытаться выбрать более раннюю дату.
*Определитесь, кто Вы:
Внимание! Время в таблицах - местное (без учета летнего времени). Для получения всемирного времени необходимо вычесть поправку, которая равна -5 ч.
Смотрите также архив погоды в соседних городах и на ближайших метеорологических станциях:
Партнеры нашего сайта:      
Пояснения к столбцам:
  • Ветер - указаны скорость ветра в м/с - средняя за 10 мин, порывы в срок и между сроками (в фигурных скобках) и направление, откуда дует ветер: С - северный,
  • СВ - северо-восточный, В - восточный, ЮВ - юго-восточный, Ю - южный, ЮЗ - юго-западный, З - западный, СЗ - северо-западный.
  • Видимость - горизонтальная дальность видимости в метрах или километрах. При видимости от 1 до 10 км при отсутствии осадков обычно наблюдается дымка, при ухудшении видимости до 1 км и менее - туман. В сухую погоду видимость может ухудшаться дымом, пылью или мглою.
  • Явления - указаны атмосферные явления, наблюдавшиеся в срок или в последний час перед сроком; фигурными скобками обозначены явления, наблюдавшиеся между сроками (за 1-3 часа до срока); квадратными скобками обозначены град или гололедные отложения с указанием их диаметра в мм.
  • Облачность - указаны через наклонную черту общая и нижняя облачность в баллах и высота нижней границы облаков в метрах; квадратными скобками обозначены формы облаков: Ci - перистые, Cs - перисто-слоистые, Cc - перисто-кучевые, Ac - высококучевые, As - высокослоистые, Sc - слоисто-кучевые, Ns - слоисто-дождевые, Cu - кучевые, Cb - кучево-дождевые. Подробнее классификацию облаков см. в Атласе облаков (PDF).
  • T - Температура воздуха - температура, измеренная на высоте 2 м над землей.
  • Td - Температура точки росы - температура, при понижении до которой содержащийся в воздухе водяной пар достигнет насыщения.
  • f - Относительная влажность воздуха - влажноcть воздуха, измеренная на высоте 2 м над землей.
  • Te - Эффективная температура - температура, которую ощущает одетый по сезону человек в тени. Характеристика душности погоды. При расчете учитывается влияние влажности воздуха и скорости ветра на теплоощущения человека.
  • Tes - Эффективная температура на солнце - температура, которую ощущает человек, с поправкой на солнечный нагрев. Характеристика знойности погоды. Зависит от высоты солнца над горизонтом, облачности и скорости ветра. Ночью, в пасмурную погоду, а также при ветре 12 м/с и более поправка равна нулю.
  • P - Атмосферное давление - приведенное к уровню моря атмосферное давление.
  • Po - Атмосферное давление - измеренное на уровне метеостанции атмосферное давление.
  • Tmin - Минимальная температура - минимум температуры воздуха на высоте 2 м над землей.
  • Tmax - Максимальная температура - максимум температуры воздуха на высоте 2 м над землей.
  • R - Количество осадков - Количество выпавших осадков за период времени, мм. При наведении курсора мыши на число - период времени, за который выпало указанное количество осадков.
  • R24 - Количество осадков - Количество выпавших осадков за 24 часа, мм.
  • S - Снежный покров - Высота снежного покрова, см. При наведении курсора мыши на число - состояние снежного покрова и степень покрытия местности в баллах.